GW4136 Weather Reports


time (UTC)temp
C
wind
direction
speed
KPH
gust
KPH
rain 1hr
cm
rain 24hr
cm
rain mn
cm
humidity
%
barometer
mb
20260502170104 16 168 0.0 0.0 0.00 0.00 0.00 68 1014.0
20260502163604 16 247 0.0 0.0 0.00 0.00 0.00 66 1014.2
20260502163104 16 247 0.0 0.0 0.00 0.00 0.00 67 1014.2
20260502162604 16 247 0.0 0.0 0.00 0.00 0.00 67 1014.2
20260502162104 16 247 0.0 0.0 0.00 0.00 0.00 66 1014.3
20260502161605 16 247 0.0 0.0 0.00 0.00 0.00 67 1014.3
20260502161104 16 247 0.0 0.0 0.00 0.00 0.00 66 1014.4
20260502160105 17 247 0.0 0.0 0.00 0.00 0.00 68 1014.5
20260502151104 16 89 0.0 3.2 0.00 0.00 0.00 66 1015.2
20260502150604 16 251 0.0 1.6 0.00 0.00 0.00 66 1015.3
20260502150105 16 202 0.0 1.6 0.00 0.00 0.00 68 1015.3
20260502140105 17 101 0.0 1.6 0.00 0.00 0.00 65 1016.5
20260502130604 16 86 1.6 4.8 0.00 0.00 0.00 67 1017.0
20260502130105 16 96 1.6 4.8 0.00 0.00 0.00 67 1017.0
20260502123604 16 91 1.6 3.2 0.00 0.00 0.00 64 1017.1
20260502123105 16 354 0.0 3.2 0.00 0.00 0.00 64 1017.1
20260502122105 16 88 1.6 8.0 0.00 0.00 0.00 65 1017.2
20260502121605 16 120 1.6 4.8 0.00 0.00 0.00 67 1017.3
20260502121105 16 150 0.0 4.8 0.00 0.00 0.00 69 1017.3
20260502120605 16 100 1.6 4.8 0.00 0.00 0.00 68 1017.4
20260502120106 16 113 1.6 8.0 0.00 0.00 0.00 68 1017.5
20260502115605 16 85 3.2 8.0 0.00 0.00 0.00 67 1017.6
20260502115105 16 98 0.0 4.8 0.00 0.00 0.00 68 1017.6
20260502114605 16 105 3.2 8.0 0.00 0.00 0.00 69 1017.7
20260502114106 16 98 0.0 8.0 0.00 0.00 0.00 68 1017.6
20260502113605 16 86 1.6 4.8 0.00 0.00 0.00 69 1017.6
20260502113105 16 76 1.6 11.3 0.00 0.00 0.00 68 1017.6
20260502112605 16 61 1.6 4.8 0.00 0.00 0.00 68 1017.8
20260502112105 16 80 3.2 11.3 0.00 0.00 0.00 67 1017.8
20260502111608 16 56 0.0 9.7 0.00 0.00 0.00 68 1017.8
20260502111105 16 110 0.0 4.8 0.00 0.00 0.00 68 1018.0
20260502110105 16 87 1.6 8.0 0.00 0.00 0.00 68 1018.1
20260502105605 16 109 0.0 3.2 0.00 0.00 0.00 69 1018.2
20260502105105 16 103 0.0 3.2 0.00 0.00 0.00 68 1018.2
20260502104605 16 223 0.0 1.6 0.00 0.00 0.00 71 1018.3
20260502104109 15 99 1.6 4.8 0.00 0.00 0.00 72 1018.4
20260502103605 15 130 1.6 8.0 0.00 0.00 0.00 71 1018.5
20260502103105 15 95 3.2 9.7 0.00 0.00 0.00 71 1018.5
20260502102605 15 86 1.6 4.8 0.00 0.00 0.00 72 1018.4
20260502102105 15 81 1.6 4.8 0.00 0.00 0.00 73 1018.4
20260502101105 15 117 1.6 3.2 0.00 0.00 0.00 73 1018.4
20260502100605 15 84 1.6 4.8 0.00 0.00 0.00 73 1018.4
20260502100105 15 157 0.0 3.2 0.00 0.00 0.00 73 1018.4
20260502091105 14 162 0.0 3.2 0.00 0.00 0.00 78 1019.0
20260502090606 14 186 0.0 3.2 0.00 0.00 0.00 78 1019.1
20260502080106 12 206 0.0 1.6 0.00 0.00 0.00 84 1019.3
20260502071105 9 131 0.0 0.0 0.00 0.00 0.00 95 1019.3
20260502070105 8 165 0.0 0.0 0.00 0.00 0.00 95 1019.3
20260502065605 8 165 0.0 0.0 0.00 0.00 0.00 95 1019.3
20260502065105 8 165 0.0 0.0 0.00 0.00 0.00 95 1019.4
20260502064605 8 165 0.0 0.0 0.00 0.00 0.00 95 1019.3
20260502064105 8 165 0.0 0.0 0.00 0.00 0.00 95 1019.3
20260502063605 8 163 0.0 0.0 0.00 0.00 0.00 95 1019.3
20260502063105 8 182 0.0 0.0 0.00 0.00 0.00 95 1019.3
20260502062605 8 182 0.0 0.0 0.00 0.00 0.00 96 1019.4
20260502062105 8 181 0.0 0.0 0.00 0.00 0.00 96 1019.4
20260502061605 8 181 0.0 0.0 0.00 0.00 0.00 96 1019.3
20260502061103 8 181 0.0 0.0 0.00 0.00 0.00 95 1019.3
20260502060604 8 181 0.0 0.0 0.00 0.00 0.00 95 1019.3
20260502060106 8 181 0.0 0.0 0.00 0.00 0.00 95 1019.2
20260502055605 8 181 0.0 0.0 0.00 0.00 0.00 95 1019.1
20260502055105 8 141 0.0 0.0 0.00 0.00 0.00 95 1019.2
20260502054605 8 139 0.0 1.6 0.00 0.00 0.00 95 1019.3
20260502054106 8 126 0.0 0.0 0.00 0.00 0.00 95 1019.2
20260502053606 8 126 0.0 0.0 0.00 0.00 0.00 95 1019.2
20260502053106 8 126 0.0 0.0 0.00 0.00 0.00 95 1019.2
20260502052606 8 126 0.0 0.0 0.00 0.00 0.00 95 1019.2
20260502052104 8 126 0.0 0.0 0.00 0.00 0.00 95 1019.2
20260502051606 8 126 0.0 0.0 0.00 0.00 0.00 95 1019.2
20260502050606 8 126 0.0 0.0 0.00 0.00 0.00 95 1019.2
20260502050106 8 126 0.0 0.0 0.00 0.00 0.00 95 1019.2
20260502045605 8 131 0.0 1.6 0.00 0.00 0.00 95 1019.2
20260502044605 8 98 0.0 1.6 0.00 0.00 0.00 95 1019.2
20260502043605 7 160 0.0 0.0 0.00 0.00 0.00 95 1019.2
20260502042604 7 160 0.0 0.0 0.00 0.00 0.00 94 1019.2
20260502041105 8 160 0.0 0.0 0.00 0.00 0.00 95 1019.2
20260502040606 8 160 0.0 0.0 0.00 0.00 0.00 95 1019.2
20260502040106 8 160 0.0 0.0 0.00 0.00 0.00 95 1019.3
20260502035605 8 160 0.0 0.0 0.00 0.00 0.00 95 1019.3
20260502035105 8 160 0.0 0.0 0.00 0.00 0.00 94 1019.3
20260502034106 8 159 0.0 0.0 0.00 0.00 0.00 94 1019.4
20260502033605 8 159 0.0 0.0 0.00 0.00 0.00 94 1019.4
20260502033105 8 159 0.0 0.0 0.00 0.00 0.00 94 1019.4
20260502032606 8 159 0.0 0.0 0.00 0.00 0.00 94 1019.4
20260502032106 8 200 0.0 0.0 0.00 0.00 0.00 94 1019.5
20260502031606 8 201 0.0 0.0 0.00 0.00 0.00 93 1019.5
20260502030605 8 202 0.0 0.0 0.00 0.00 0.00 94 1019.5
20260502030106 8 202 0.0 0.0 0.00 0.00 0.00 94 1019.5
20260502025606 8 202 0.0 0.0 0.00 0.00 0.00 94 1019.5
20260502025106 8 202 0.0 0.0 0.00 0.00 0.00 93 1019.5
20260502024606 8 202 0.0 0.0 0.00 0.00 0.00 93 1019.5
20260502024106 8 202 0.0 0.0 0.00 0.00 0.00 93 1019.5
20260502023105 9 202 0.0 0.0 0.00 0.00 0.00 93 1019.6
20260502022606 9 202 0.0 0.0 0.00 0.00 0.00 93 1019.6
20260502022106 9 202 0.0 0.0 0.00 0.00 0.00 93 1019.8
20260502021606 9 202 0.0 0.0 0.00 0.00 0.00 93 1019.7
20260502021106 9 202 0.0 0.0 0.00 0.00 0.00 93 1019.8
20260502020106 9 202 0.0 0.0 0.00 0.00 0.00 93 1019.9
20260502015606 9 202 0.0 0.0 0.00 0.00 0.00 92 1019.9
20260502015110 10 202 0.0 0.0 0.00 0.00 0.00 93 1019.9
20260502014606 10 202 0.0 0.0 0.00 0.00 0.00 93 1019.9
20260502014106 10 202 0.0 0.0 0.00 0.00 0.00 92 1020.0
20260502013606 10 202 0.0 0.0 0.00 0.00 0.00 92 1020.1
20260502013106 10 202 0.0 0.0 0.00 0.00 0.00 92 1020.2
20260502012106 10 202 0.0 0.0 0.00 0.00 0.00 92 1020.2
20260502011606 10 202 0.0 0.0 0.00 0.00 0.00 92 1020.2
20260502010606 10 202 0.0 0.0 0.00 0.00 0.00 92 1020.3
20260502010106 10 202 0.0 0.0 0.00 0.00 0.00 92 1020.3
20260502005606 10 202 0.0 0.0 0.00 0.00 0.00 91 1020.3
20260502005106 10 203 0.0 0.0 0.00 0.00 0.00 91 1020.4
20260502004605 10 202 0.0 0.0 0.00 0.00 0.00 91 1020.5
20260502004106 10 202 0.0 0.0 0.00 0.00 0.00 91 1020.5
20260502003606 10 202 0.0 0.0 0.00 0.00 0.00 90 1020.5
20260502003106 10 202 0.0 0.0 0.00 0.00 0.00 90 1020.6
20260502001606 11 202 0.0 0.0 0.00 0.00 0.00 90 1020.6
20260502001106 11 202 0.0 0.0 0.00 0.00 0.00 90 1020.6
20260502000605 11 202 0.0 0.0 0.00 0.00 0.00 90 1020.7
20260502000106 11 202 0.0 1.6 0.00 0.00 0.00 91 1020.7
20260501235606 11 176 0.0 1.6 0.00 0.00 0.00 91 1020.7
20260501235106 11 160 0.0 0.0 0.00 0.00 0.00 91 1020.8
20260501234606 11 160 0.0 0.0 0.00 0.00 0.00 91 1020.8
20260501234106 11 160 0.0 0.0 0.00 0.00 0.00 91 1020.8
20260501233605 11 243 0.0 0.0 0.00 0.00 0.00 91 1020.8
20260501233106 11 243 0.0 0.0 0.00 0.00 0.00 90 1020.9
20260501232606 11 243 0.0 0.0 0.00 0.00 0.00 89 1020.9
20260501232106 11 243 0.0 0.0 0.00 0.00 0.00 89 1020.9
20260501231605 11 243 0.0 0.0 0.00 0.00 0.00 89 1020.9
20260501231106 11 243 0.0 0.0 0.00 0.00 0.00 89 1020.9
20260501230605 11 243 0.0 0.0 0.00 0.00 0.00 89 1020.9
20260501230106 11 243 0.0 0.0 0.00 0.00 0.00 88 1020.9
20260501224605 12 243 0.0 0.0 0.00 0.00 0.00 88 1020.9
20260501224105 12 243 0.0 1.6 0.00 0.00 0.00 88 1020.9
20260501223605 12 203 0.0 1.6 0.00 0.00 0.00 88 1020.9
20260501223105 12 102 0.0 3.2 0.00 0.00 0.00 88 1020.9
20260501222604 12 198 0.0 4.8 0.00 0.00 0.00 88 1020.9
20260501222105 12 163 0.0 1.6 0.00 0.00 0.00 89 1020.9
20260501221605 13 169 0.0 1.6 0.00 0.00 0.00 89 1020.9
20260501220605 13 173 0.0 1.6 0.00 0.00 0.00 89 1020.9
20260501215604 13 176 0.0 0.0 0.00 0.00 0.00 89 1020.8
20260501215105 13 155 0.0 0.0 0.00 0.00 0.00 89 1020.8
20260501214605 13 147 0.0 0.0 0.00 0.00 0.00 89 1020.7
20260501214104 13 144 0.0 3.2 0.00 0.00 0.00 89 1020.7
20260501213605 13 204 1.6 4.8 0.00 0.00 0.00 89 1020.7
20260501213105 13 188 0.0 0.0 0.00 0.00 0.00 89 1020.7
20260501212605 13 193 0.0 1.6 0.00 0.00 0.00 89 1020.7
20260501212105 13 188 0.0 0.0 0.00 0.00 0.00 89 1020.8
20260501211605 13 173 0.0 0.0 0.00 0.00 0.00 89 1020.7
20260501211104 13 182 0.0 0.0 0.00 0.00 0.00 89 1020.7
20260501210104 13 214 0.0 1.6 0.00 0.00 0.00 89 1020.6
20260501205104 13 155 0.0 0.0 0.00 0.00 0.00 89 1020.7
20260501204604 13 154 0.0 1.6 0.00 0.00 0.00 89 1020.7
20260501204104 13 142 0.0 0.0 0.00 0.00 0.00 89 1020.7
20260501203605 13 156 0.0 1.6 0.00 0.00 0.00 89 1020.7
20260501203105 13 131 0.0 1.6 0.00 0.00 0.00 89 1020.7
20260501202604 13 153 0.0 1.6 0.00 0.00 0.00 89 1020.7
20260501202104 13 143 0.0 0.0 0.00 0.00 0.00 88 1020.8
20260501201606 13 145 0.0 0.0 0.00 0.00 0.00 88 1020.7
20260501201104 13 145 0.0 0.0 0.00 0.00 0.00 88 1020.7
20260501200604 13 145 0.0 0.0 0.00 0.00 0.00 88 1020.7
20260501200105 13 143 0.0 1.6 0.00 0.00 0.00 88 1020.7
20260501195604 13 143 0.0 0.0 0.00 0.00 0.00 88 1020.7
20260501194604 13 145 0.0 1.6 0.00 0.00 0.00 88 1020.7
20260501194104 13 140 0.0 0.0 0.00 0.00 0.00 88 1020.7
20260501193604 13 217 0.0 1.6 0.00 0.00 0.00 88 1020.7
20260501193104 13 178 0.0 1.6 0.00 0.00 0.00 87 1020.6
20260501192604 13 138 0.0 0.0 0.00 0.00 0.00 87 1020.6
20260501192104 13 138 0.0 0.0 0.00 0.00 0.00 87 1020.6
20260501191604 13 138 0.0 0.0 0.00 0.00 0.00 86 1020.6
20260501191104 13 138 0.0 0.0 0.00 0.00 0.00 86 1020.6
20260501190604 13 136 0.0 0.0 0.00 0.00 0.00 86 1020.6
20260501190105 14 136 0.0 0.0 0.00 0.00 0.00 86 1020.6
20260501185104 14 188 0.0 0.0 0.00 0.00 0.00 85 1020.6
20260501184605 14 175 0.0 1.6 0.00 0.00 0.00 85 1020.5
20260501184104 14 140 0.0 1.6 0.00 0.00 0.00 84 1020.5
20260501183605 14 117 0.0 1.6 0.00 0.00 0.00 84 1020.5
20260501182605 14 134 0.0 1.6 0.00 0.00 0.00 83 1020.5
20260501181604 15 139 0.0 1.6 0.00 0.00 0.00 82 1020.4
20260501181104 15 147 1.6 3.2 0.00 0.00 0.00 82 1020.3
20260501180604 15 149 1.6 4.8 0.00 0.00 0.00 82 1020.3
20260501180105 15 144 0.0 4.8 0.00 0.00 0.00 83 1020.3
20260501175604 15 191 0.0 4.8 0.00 0.00 0.00 83 1020.3
20260501175104 15 127 0.0 1.6 0.00 0.00 0.00 83 1020.3
20260501174604 15 129 0.0 8.0 0.00 0.00 0.00 83 1020.3
20260501174104 15 133 0.0 1.6 0.00 0.00 0.00 84 1020.3
20260501173605 15 139 0.0 4.8 0.00 0.00 0.00 84 1020.3
20260501173105 15 92 0.0 4.8 0.00 0.00 0.00 84 1020.2